1 Anzeige mit Außen Messungen

Zurück zum Überblick

Zeitpunkt Temperatur Innen Luftfeuchte Innen Luftqualität Temperatur Außen
15.10.2019 12:06:27 24,5 C 54,0% 500 ppm 26,1 C
15.10.2019 12:00:28 24,5 C 54,0% 500 ppm 25,8 C
15.10.2019 11:54:26 24,5 C 54,0% 450 ppm 25,1 C
15.10.2019 11:48:27 24,5 C 54,0% 450 ppm 24,2 C
15.10.2019 11:42:28 24,5 C 54,0% 450 ppm 24,0 C
15.10.2019 11:36:28 24,5 C 54,0% 450 ppm 23,7 C
15.10.2019 11:30:26 24,5 C 54,0% 450 ppm 23,6 C
15.10.2019 11:24:26 24,0 C 53,0% 450 ppm 24,6 C
15.10.2019 11:18:19 24,0 C 53,0% 450 ppm 26,4 C
15.10.2019 11:12:30 24,0 C 53,0% 450 ppm 29,0 C
15.10.2019 11:06:26 24,0 C 53,0% 450 ppm 30,1 C
15.10.2019 11:00:26 24,0 C 53,0% 450 ppm 31,6 C
15.10.2019 10:54:25 24,0 C 53,0% 450 ppm 29,7 C
15.10.2019 10:49:49 24,0 C 53,0% 100 ppm 29,3 C
15.10.2019 10:42:29 24,0 C 53,0% 450 ppm 29,7 C
15.10.2019 10:36:26 24,0 C 53,0% 450 ppm 29,6 C
15.10.2019 10:30:27 24,0 C 53,0% 450 ppm 29,7 C
15.10.2019 10:24:29 24,0 C 52,0% 450 ppm 28,6 C
15.10.2019 10:18:30 24,0 C 52,0% 450 ppm 27,3 C
15.10.2019 10:12:24 24,0 C 52,0% 450 ppm 26,8 C
15.10.2019 10:06:26 24,0 C 52,0% 450 ppm 25,4 C
15.10.2019 10:00:25 24,0 C 52,0% 450 ppm 23,7 C
15.10.2019 09:54:30 24,0 C 52,0% 450 ppm 22,3 C
15.10.2019 09:49:54 24,0 C 52,0% 100 ppm 21,6 C
15.10.2019 09:42:24 24,0 C 52,0% 450 ppm 20,3 C
15.10.2019 09:36:27 24,0 C 52,0% 450 ppm 18,7 C
15.10.2019 09:30:27 24,0 C 52,0% 450 ppm 16,7 C
15.10.2019 09:24:30 24,0 C 52,0% 450 ppm 15,8 C
15.10.2019 09:18:15 24,0 C 52,0% 450 ppm 15,6 C
15.10.2019 09:12:24 24,0 C 52,0% 450 ppm 15,2 C
15.10.2019 09:06:27 24,0 C 52,0% 450 ppm 15,0 C
15.10.2019 09:00:22 24,0 C 52,0% 450 ppm 14,9 C
15.10.2019 08:54:23 24,0 C 52,0% 450 ppm 14,8 C
15.10.2019 08:48:24 24,0 C 52,0% 450 ppm 14,5 C
15.10.2019 08:42:25 24,0 C 52,0% 450 ppm 14,4 C
15.10.2019 08:36:23 24,0 C 52,0% 450 ppm 14,4 C
15.10.2019 08:30:27 24,0 C 52,0% 450 ppm 14,4 C
15.10.2019 08:24:26 24,0 C 52,0% 450 ppm 14,2 C
15.10.2019 08:18:22 24,0 C 52,0% 450 ppm 14,2 C
15.10.2019 08:12:24 24,0 C 52,0% 450 ppm 14,1 C
15.10.2019 08:06:23 24,0 C 52,0% 450 ppm 13,8 C
15.10.2019 08:00:22 24,0 C 52,0% 450 ppm 13,9 C
15.10.2019 07:54:27 23,5 C 52,0% 450 ppm 13,7 C
15.10.2019 07:48:21 23,5 C 52,0% 450 ppm 13,8 C
15.10.2019 07:42:21 23,5 C 52,0% 450 ppm 13,9 C
15.10.2019 07:36:22 23,5 C 52,0% 450 ppm 14,0 C
15.10.2019 07:30:22 23,5 C 52,0% 450 ppm 13,8 C
15.10.2019 07:24:23 23,5 C 52,0% 450 ppm 13,9 C
15.10.2019 07:18:21 24,0 C 52,0% 450 ppm 13,9 C
15.10.2019 07:12:26 23,5 C 52,0% 450 ppm 14,0 C
15.10.2019 07:06:22 23,5 C 52,0% 450 ppm 14,2 C
15.10.2019 07:00:25 23,5 C 52,0% 450 ppm 14,5 C
15.10.2019 06:54:21 23,5 C 52,0% 450 ppm 14,6 C
15.10.2019 06:48:26 23,5 C 52,0% 450 ppm 15,0 C
15.10.2019 06:42:20 23,5 C 52,0% 450 ppm 15,2 C
15.10.2019 06:36:24 23,5 C 52,0% 450 ppm 15,2 C
15.10.2019 06:30:22 23,5 C 52,0% 450 ppm 15,4 C
15.10.2019 06:24:19 23,5 C 52,0% 450 ppm 15,4 C
15.10.2019 06:18:19 23,5 C 52,0% 450 ppm 15,2 C
15.10.2019 06:12:18 23,5 C 52,0% 450 ppm 15,2 C
15.10.2019 06:06:23 24,0 C 52,0% 450 ppm 15,0 C
15.10.2019 06:00:19 24,0 C 52,0% 450 ppm 15,0 C
15.10.2019 05:54:19 24,0 C 52,0% 450 ppm 15,2 C
15.10.2019 05:48:20 24,0 C 52,0% 450 ppm 15,5 C
15.10.2019 05:42:18 24,0 C 52,0% 450 ppm 15,8 C
15.10.2019 05:36:20 24,0 C 52,0% 450 ppm 15,8 C
15.10.2019 05:30:23 24,0 C 52,0% 450 ppm 15,8 C
15.10.2019 05:24:23 24,0 C 52,0% 450 ppm 15,7 C
15.10.2019 05:18:20 24,0 C 52,0% 450 ppm 15,5 C
15.10.2019 05:12:23 24,0 C 52,0% 450 ppm 15,2 C
15.10.2019 05:06:18 24,0 C 52,0% 450 ppm 15,1 C
15.10.2019 05:00:22 24,0 C 52,0% 450 ppm 15,3 C
15.10.2019 04:54:17 24,0 C 52,0% 450 ppm 15,4 C
15.10.2019 04:48:23 24,0 C 52,0% 450 ppm 15,5 C
15.10.2019 04:42:21 24,0 C 51,0% 450 ppm 15,7 C
15.10.2019 04:36:17 24,0 C 51,0% 450 ppm 15,7 C
15.10.2019 04:30:21 24,0 C 51,0% 450 ppm 15,7 C
15.10.2019 04:24:20 24,0 C 51,0% 450 ppm 15,8 C
15.10.2019 04:18:16 24,0 C 51,0% 450 ppm 15,8 C
15.10.2019 04:12:17 24,0 C 51,0% 450 ppm 16,0 C
15.10.2019 04:06:17 24,0 C 51,0% 450 ppm 16,1 C
15.10.2019 04:00:17 24,0 C 51,0% 450 ppm 16,1 C
15.10.2019 03:54:22 24,0 C 51,0% 450 ppm 16,2 C
15.10.2019 03:48:21 24,0 C 51,0% 450 ppm 16,2 C
15.10.2019 03:42:22 24,0 C 51,0% 450 ppm 16,3 C
15.10.2019 03:36:18 24,0 C 52,0% 450 ppm 16,2 C
15.10.2019 03:30:16 24,0 C 52,0% 450 ppm 16,1 C
15.10.2019 03:24:19 24,0 C 52,0% 450 ppm 16,1 C
15.10.2019 03:18:17 24,0 C 52,0% 450 ppm 16,1 C
15.10.2019 03:12:23 24,0 C 52,0% 450 ppm 16,1 C
15.10.2019 03:06:17 24,0 C 52,0% 450 ppm 16,1 C
15.10.2019 03:00:19 24,0 C 52,0% 450 ppm 16,2 C
15.10.2019 02:54:15 24,0 C 52,0% 450 ppm 16,3 C
15.10.2019 02:48:22 24,0 C 52,0% 450 ppm 16,3 C
15.10.2019 02:42:21 24,0 C 52,0% 450 ppm 16,4 C
15.10.2019 02:36:16 24,0 C 52,0% 450 ppm 16,5 C
15.10.2019 02:30:19 24,0 C 52,0% 450 ppm 16,5 C
15.10.2019 02:24:15 24,0 C 52,0% 450 ppm 16,5 C
15.10.2019 02:18:20 24,0 C 52,0% 450 ppm 16,5 C
15.10.2019 02:12:20 24,0 C 52,0% 450 ppm 16,4 C
15.10.2019 02:06:18 24,0 C 52,0% 450 ppm 16,4 C
15.10.2019 02:00:15 24,0 C 52,0% 450 ppm 16,4 C
15.10.2019 01:54:15 24,0 C 52,0% 450 ppm 16,4 C
15.10.2019 01:48:17 24,0 C 52,0% 450 ppm 16,3 C
15.10.2019 01:42:20 24,0 C 52,0% 450 ppm 16,3 C
15.10.2019 01:36:17 24,0 C 52,0% 450 ppm 16,2 C
15.10.2019 01:30:15 24,0 C 52,0% 450 ppm 16,3 C
15.10.2019 01:24:15 24,0 C 52,0% 500 ppm 16,2 C
15.10.2019 01:18:18 24,0 C 52,0% 500 ppm 16,3 C
15.10.2019 01:12:20 24,0 C 52,0% 500 ppm 16,2 C
15.10.2019 01:06:18 24,0 C 52,0% 500 ppm 16,1 C
15.10.2019 01:00:18 24,0 C 52,0% 500 ppm 16,2 C
15.10.2019 00:54:15 24,0 C 52,0% 500 ppm 16,2 C
15.10.2019 00:48:14 24,0 C 52,0% 500 ppm 16,2 C
15.10.2019 00:42:17 24,0 C 52,0% 500 ppm 16,3 C
15.10.2019 00:36:15 24,0 C 52,0% 500 ppm 16,2 C
15.10.2019 00:30:15 24,0 C 52,0% 550 ppm 16,2 C
15.10.2019 00:24:15 24,0 C 52,0% 550 ppm 16,1 C
15.10.2019 00:18:18 24,0 C 52,0% 550 ppm 16,1 C
15.10.2019 00:12:17 24,0 C 52,0% 550 ppm 15,8 C
15.10.2019 00:06:15 24,0 C 52,0% 550 ppm 15,6 C
15.10.2019 00:00:13 24,0 C 52,0% 550 ppm 15,5 C